Saint Bonnet de Bellac- Haute Vienne - France
Donnes mto: lundi, 17/09/2012
Date Horaire Temp. E. Hum. E. P.atmo. Pluie Vent Direction Direction Ensoleilleme Solaire P. de rose Temp au vent Rafales
17/09/2012 00:00 13,8 C 71 % 1014,1 hPa 0,0 mm 0,0 km/h (0 Bft) E 90 0 min 0 W/m 8,6 C 13,8 C 0,0 km/h (0 Bft)
17/09/2012 00:10 13,5 C 72 % 1014,3 hPa 0,0 mm 0,0 km/h (0 Bft) E 90 0 min 0 W/m 8,6 C 13,5 C 0,0 km/h (0 Bft)
17/09/2012 00:20 13,3 C 72 % 1014,2 hPa 0,0 mm 0,0 km/h (0 Bft) N 360 0 min 0 W/m 8,4 C 13,3 C 0,0 km/h (0 Bft)
17/09/2012 00:30 13,2 C 75 % 1014,2 hPa 0,0 mm 0,0 km/h (0 Bft) SE 135 0 min 0 W/m 8,9 C 13,2 C 0,0 km/h (0 Bft)
17/09/2012 00:40 13,1 C 75 % 1014,1 hPa 0,0 mm 2,5 km/h (1 Bft) E-SE 112 0 min 0 W/m 8,8 C 13,1 C 3,6 km/h (1 Bft)
17/09/2012 00:50 13,2 C 76 % 1014,1 hPa 0,0 mm 1,8 km/h (1 Bft) E 90 0 min 0 W/m 9,1 C 13,2 C 4,3 km/h (1 Bft)
17/09/2012 01:00 13,2 C 76 % 1014,2 hPa 0,0 mm 0,7 km/h (0 Bft) E-SE 112 0 min 0 W/m 9,1 C 13,2 C 0,7 km/h (0 Bft)
17/09/2012 01:10 13,1 C 77 % 1014,2 hPa 0,0 mm 4,0 km/h (1 Bft) E 90 0 min 0 W/m 9,2 C 13,1 C 7,2 km/h (2 Bft)
17/09/2012 01:20 12,9 C 78 % 1014,2 hPa 0,0 mm 1,8 km/h (1 Bft) E-NE 67 0 min 0 W/m 9,2 C 12,9 C 1,8 km/h (1 Bft)
17/09/2012 01:30 12,8 C 78 % 1014,1 hPa 0,0 mm 3,6 km/h (1 Bft) E-SE 112 0 min 0 W/m 9,1 C 12,8 C 6,1 km/h (2 Bft)
17/09/2012 01:40 12,7 C 78 % 1014,0 hPa 0,0 mm 1,1 km/h (1 Bft) E-SE 112 0 min 0 W/m 9,0 C 12,7 C 1,1 km/h (1 Bft)
17/09/2012 01:50 12,6 C 78 % 1013,9 hPa 0,0 mm 0,0 km/h (0 Bft) E-SE 112 0 min 0 W/m 8,9 C 12,6 C 0,0 km/h (0 Bft)
17/09/2012 02:00 12,4 C 78 % 1014,0 hPa 0,0 mm 0,0 km/h (0 Bft) E 90 0 min 0 W/m 8,7 C 12,4 C 0,0 km/h (0 Bft)
17/09/2012 02:10 12,2 C 79 % 1014,0 hPa 0,0 mm 1,1 km/h (1 Bft) E-NE 67 0 min 0 W/m 8,7 C 12,2 C 4,3 km/h (1 Bft)
17/09/2012 02:20 12,0 C 80 % 1014,1 hPa 0,0 mm 0,0 km/h (0 Bft) E-SE 112 0 min 0 W/m 8,7 C 12,0 C 0,0 km/h (0 Bft)
17/09/2012 02:30 11,8 C 81 % 1014,0 hPa 0,0 mm 0,0 km/h (0 Bft) E-SE 112 0 min 0 W/m 8,6 C 11,8 C 0,0 km/h (0 Bft)
17/09/2012 02:40 11,7 C 81 % 1014,0 hPa 0,0 mm 0,0 km/h (0 Bft) E-NE 67 0 min 0 W/m 8,5 C 11,7 C 3,2 km/h (1 Bft)
17/09/2012 02:50 11,5 C 81 % 1014,0 hPa 0,0 mm 1,1 km/h (1 Bft) E 90 0 min 0 W/m 8,4 C 11,5 C 4,3 km/h (1 Bft)
17/09/2012 03:02 11,4 C 81 % 1013,8 hPa 0,0 mm 0,4 km/h (0 Bft) SE 135 0 min 0 W/m 8,3 C 11,4 C 0,4 km/h (0 Bft)
17/09/2012 03:10 11,4 C 82 % 1013,8 hPa 0,0 mm 0,0 km/h (0 Bft) E-SE 112 0 min 0 W/m 8,4 C 11,4 C 0,0 km/h (0 Bft)
17/09/2012 03:20 11,3 C 82 % 1013,8 hPa 0,0 mm 0,0 km/h (0 Bft) NE 45 0 min 0 W/m 8,3 C 11,3 C 1,4 km/h (1 Bft)
17/09/2012 03:30 11,1 C 82 % 1013,7 hPa 0,0 mm 0,0 km/h (0 Bft) E-NE 67 0 min 0 W/m 8,1 C 11,1 C 2,9 km/h (1 Bft)
17/09/2012 03:40 10,9 C 83 % 1013,7 hPa 0,0 mm 0,0 km/h (0 Bft) E 90 0 min 0 W/m 8,1 C 10,9 C 3,6 km/h (1 Bft)
17/09/2012 03:50 10,8 C 83 % 1013,9 hPa 0,0 mm 0,0 km/h (0 Bft) SE 135 0 min 0 W/m 8,0 C 10,8 C 3,2 km/h (1 Bft)
17/09/2012 04:00 10,7 C 83 % 1013,8 hPa 0,0 mm 0,0 km/h (0 Bft) E-SE 112 0 min 0 W/m 7,9 C 10,7 C 0,0 km/h (0 Bft)
17/09/2012 04:10 10,6 C 84 % 1013,8 hPa 0,0 mm 0,0 km/h (0 Bft) S-SE 157 0 min 0 W/m 8,0 C 10,6 C 0,0 km/h (0 Bft)
17/09/2012 04:20 10,4 C 84 % 1013,8 hPa 0,0 mm 0,0 km/h (0 Bft) E-NE 67 0 min 0 W/m 7,8 C 10,4 C 0,0 km/h (0 Bft)
17/09/2012 04:30 10,3 C 84 % 1013,8 hPa 0,0 mm 0,0 km/h (0 Bft) E-SE 112 0 min 0 W/m 7,7 C 10,3 C 0,0 km/h (0 Bft)
17/09/2012 04:40 10,2 C 84 % 1013,7 hPa 0,0 mm 0,0 km/h (0 Bft) SE 135 0 min 0 W/m 7,6 C 10,2 C 0,0 km/h (0 Bft)
17/09/2012 04:50 10,1 C 84 % 1013,6 hPa 0,0 mm 0,0 km/h (0 Bft) E-SE 112 0 min 0 W/m 7,5 C 10,1 C 0,0 km/h (0 Bft)
17/09/2012 05:00 9,8 C 84 % 1013,7 hPa 0,0 mm 0,0 km/h (0 Bft) E-SE 112 0 min 0 W/m 7,2 C 9,8 C 0,0 km/h (0 Bft)
17/09/2012 05:10 9,7 C 84 % 1013,6 hPa 0,0 mm 0,0 km/h (0 Bft) E-SE 112 0 min 0 W/m 7,1 C 9,7 C 0,0 km/h (0 Bft)
17/09/2012 05:20 9,6 C 84 % 1013,7 hPa 0,0 mm 0,0 km/h (0 Bft) SE 135 0 min 0 W/m 7,0 C 9,6 C 0,0 km/h (0 Bft)
17/09/2012 05:30 9,7 C 85 % 1013,8 hPa 0,0 mm 0,0 km/h (0 Bft) SE 135 0 min 0 W/m 7,3 C 9,7 C 0,0 km/h (0 Bft)
17/09/2012 05:40 9,8 C 84 % 1013,7 hPa 0,0 mm 1,8 km/h (1 Bft) E-SE 112 0 min 0 W/m 7,2 C 9,8 C 1,8 km/h (1 Bft)
17/09/2012 05:50 9,8 C 85 % 1013,7 hPa 0,0 mm 0,0 km/h (0 Bft) E-SE 112 0 min 0 W/m 7,4 C 9,8 C 0,0 km/h (0 Bft)
17/09/2012 06:00 9,8 C 85 % 1013,8 hPa 0,0 mm 1,4 km/h (1 Bft) E-SE 112 0 min 0 W/m 7,4 C 9,8 C 3,6 km/h (1 Bft)
17/09/2012 06:10 9,8 C 85 % 1013,9 hPa 0,0 mm 0,0 km/h (0 Bft) SE 135 0 min 0 W/m 7,4 C 9,8 C 0,0 km/h (0 Bft)
17/09/2012 06:20 9,8 C 85 % 1013,9 hPa 0,0 mm 0,4 km/h (0 Bft) E-SE 112 0 min 0 W/m 7,4 C 9,8 C 3,2 km/h (1 Bft)
17/09/2012 06:30 9,8 C 85 % 1013,8 hPa 0,0 mm 2,5 km/h (1 Bft) E 90 0 min 0 W/m 7,4 C 9,8 C 4,3 km/h (1 Bft)
17/09/2012 06:40 9,8 C 86 % 1013,6 hPa 0,0 mm 4,3 km/h (1 Bft) E-NE 67 0 min 0 W/m 7,6 C 9,8 C 10,4 km/h (2 Bft)
17/09/2012 06:50 9,9 C 86 % 1013,6 hPa 0,0 mm 5,8 km/h (2 Bft) E-SE 112 0 min 0 W/m 7,7 C 9,4 C 7,9 km/h (2 Bft)
17/09/2012 07:00 10,1 C 86 % 1013,8 hPa 0,0 mm 2,2 km/h (1 Bft) E-SE 112 0 min 0 W/m 7,9 C 10,1 C 3,2 km/h (1 Bft)
17/09/2012 07:10 10,3 C 86 % 1013,7 hPa 0,0 mm 2,2 km/h (1 Bft) SE 135 0 min 0 W/m 8,1 C 10,3 C 4,0 km/h (1 Bft)
17/09/2012 07:20 10,3 C 85 % 1013,7 hPa 0,0 mm 1,8 km/h (1 Bft) E-SE 112 0 min 0 W/m 7,9 C 10,3 C 4,3 km/h (1 Bft)
17/09/2012 07:30 10,3 C 85 % 1013,7 hPa 0,0 mm 0,7 km/h (0 Bft) E 90 0 min 0 W/m 7,9 C 10,3 C 2,9 km/h (1 Bft)
17/09/2012 07:40 10,3 C 85 % 1013,7 hPa 0,0 mm 2,5 km/h (1 Bft) SE 135 0 min 0 W/m 7,9 C 10,3 C 2,9 km/h (1 Bft)
17/09/2012 07:50 10,3 C 85 % 1013,8 hPa 0,0 mm 1,1 km/h (1 Bft) SE 135 0 min 0 W/m 7,9 C 10,3 C 5,8 km/h (2 Bft)
17/09/2012 08:00 10,4 C 85 % 1013,8 hPa 0,0 mm 2,9 km/h (1 Bft) E-NE 67 0 min 0 W/m 8,0 C 10,4 C 3,6 km/h (1 Bft)
17/09/2012 08:10 10,4 C 85 % 1013,9 hPa 0,0 mm 1,4 km/h (1 Bft) E-NE 67 0 min 0 W/m 8,0 C 10,4 C 4,0 km/h (1 Bft)
17/09/2012 08:20 10,5 C 85 % 1013,9 hPa 0,0 mm 1,4 km/h (1 Bft) E-SE 112 0 min 0 W/m 8,1 C 10,5 C 4,0 km/h (1 Bft)
17/09/2012 08:30 10,5 C 85 % 1014,0 hPa 0,0 mm 0,0 km/h (0 Bft) E-SE 112 0 min 0 W/m 8,1 C 10,5 C 0,0 km/h (0 Bft)
17/09/2012 08:40 10,6 C 85 % 1014,0 hPa 0,0 mm 1,1 km/h (1 Bft) E-NE 67 0 min 0 W/m 8,2 C 10,6 C 1,1 km/h (1 Bft)
17/09/2012 08:50 10,8 C 85 % 1014,1 hPa 0,0 mm 0,4 km/h (0 Bft) S-SE 157 0 min 0 W/m 8,4 C 10,8 C 0,4 km/h (0 Bft)
17/09/2012 09:00 10,9 C 85 % 1014,2 hPa 0,0 mm 1,4 km/h (1 Bft) E-SE 112 0 min 0 W/m 8,5 C 10,9 C 4,3 km/h (1 Bft)
17/09/2012 09:10 11,3 C 85 % 1014,2 hPa 0,0 mm 0,0 km/h (0 Bft) E 90 0 min 0 W/m 8,9 C 11,3 C 0,0 km/h (0 Bft)
17/09/2012 09:20 11,8 C 85 % 1014,2 hPa 0,0 mm 0,0 km/h (0 Bft) SE 135 0 min 0 W/m 9,4 C 11,8 C 0,0 km/h (0 Bft)
17/09/2012 09:30 12,4 C 83 % 1014,4 hPa 0,0 mm 0,0 km/h (0 Bft) E 90 0 min 0 W/m 9,6 C 12,4 C 3,2 km/h (1 Bft)
17/09/2012 09:40 12,8 C 82 % 1014,6 hPa 0,0 mm 0,0 km/h (0 Bft) E 90 0 min 0 W/m 9,8 C 12,8 C 0,0 km/h (0 Bft)
17/09/2012 09:50 13,2 C 82 % 1014,6 hPa 0,0 mm 0,0 km/h (0 Bft) E 90 0 min 0 W/m 10,2 C 13,2 C 3,6 km/h (1 Bft)
17/09/2012 10:00 13,7 C 81 % 1014,6 hPa 0,0 mm 0,0 km/h (0 Bft) N 360 0 min 0 W/m 10,5 C 13,7 C 0,0 km/h (0 Bft)
17/09/2012 10:10 14,2 C 80 % 1014,7 hPa 0,0 mm 0,4 km/h (0 Bft) E 90 0 min 0 W/m 10,8 C 14,2 C 3,2 km/h (1 Bft)
17/09/2012 10:20 14,8 C 79 % 1014,8 hPa 0,0 mm 0,0 km/h (0 Bft) E 90 0 min 0 W/m 11,2 C 14,8 C 0,0 km/h (0 Bft)
17/09/2012 10:30 15,4 C 78 % 1014,8 hPa 0,0 mm 0,0 km/h (0 Bft) E 90 0 min 0 W/m 11,6 C 15,4 C 0,0 km/h (0 Bft)
17/09/2012 10:40 15,9 C 77 % 1014,9 hPa 0,0 mm 0,0 km/h (0 Bft) E 90 0 min 0 W/m 11,9 C 15,9 C 0,0 km/h (0 Bft)
17/09/2012 10:50 16,6 C 76 % 1015,0 hPa 0,0 mm 0,0 km/h (0 Bft) E 90 0 min 0 W/m 12,3 C 16,6 C 0,0 km/h (0 Bft)
17/09/2012 11:00 17,8 C 74 % 1015,1 hPa 0,0 mm 0,0 km/h (0 Bft) E 90 0 min 0 W/m 13,1 C 17,8 C 0,0 km/h (0 Bft)
17/09/2012 11:10 19,4 C 71 % 1015,2 hPa 0,0 mm 1,1 km/h (1 Bft) O-SO 247 0 min 0 W/m 14,0 C 19,4 C 4,0 km/h (1 Bft)
17/09/2012 11:20 21,3 C 64 % 1015,2 hPa 0,0 mm 0,0 km/h (0 Bft) SO 225 0 min 0 W/m 14,2 C 21,3 C 0,0 km/h (0 Bft)
17/09/2012 11:30 22,8 C 63 % 1015,2 hPa 0,0 mm 0,0 km/h (0 Bft) S 180 0 min 0 W/m 15,4 C 22,8 C 0,0 km/h (0 Bft)
17/09/2012 11:40 23,8 C 55 % 1015,2 hPa 0,0 mm 0,0 km/h (0 Bft) SO 225 0 min 0 W/m 14,2 C 23,8 C 3,2 km/h (1 Bft)
17/09/2012 11:50 24,9 C 50 % 1015,3 hPa 0,0 mm 2,9 km/h (1 Bft) S-SO 202 0 min 0 W/m 13,7 C 24,9 C 6,1 km/h (2 Bft)
17/09/2012 12:00 25,4 C 46 % 1015,4 hPa 0,0 mm 4,0 km/h (1 Bft) SO 225 0 min 0 W/m 12,9 C 25,4 C 5,8 km/h (2 Bft)
17/09/2012 12:10 25,6 C 48 % 1015,2 hPa 0,0 mm 1,1 km/h (1 Bft) S-SE 157 0 min 0 W/m 13,8 C 25,6 C 3,6 km/h (1 Bft)
17/09/2012 12:20 26,2 C 45 % 1015,2 hPa 0,0 mm 4,7 km/h (1 Bft) S-SO 202 0 min 0 W/m 13,3 C 26,2 C 8,3 km/h (2 Bft)
17/09/2012 12:30 26,6 C 45 % 1015,1 hPa 0,0 mm 0,7 km/h (0 Bft) S 180 0 min 0 W/m 13,7 C 26,6 C 0,7 km/h (0 Bft)
17/09/2012 12:40 27,0 C 42 % 1014,9 hPa 0,0 mm 3,2 km/h (1 Bft) S-SO 202 0 min 0 W/m 13,0 C 27,0 C 6,5 km/h (2 Bft)
17/09/2012 12:50 27,2 C 40 % 1015,1 hPa 0,0 mm 3,2 km/h (1 Bft) S 180 0 min 0 W/m 12,4 C 27,2 C 3,2 km/h (1 Bft)
17/09/2012 13:00 27,3 C 39 % 1015,1 hPa 0,0 mm 2,9 km/h (1 Bft) SO 225 0 min 0 W/m 12,1 C 27,3 C 3,6 km/h (1 Bft)
17/09/2012 13:10 27,5 C 40 % 1015,1 hPa 0,0 mm 0,0 km/h (0 Bft) O-SO 247 0 min 0 W/m 12,7 C 27,5 C 0,0 km/h (0 Bft)
17/09/2012 13:20 27,6 C 39 % 1015,1 hPa 0,0 mm 4,0 km/h (1 Bft) SO 225 0 min 0 W/m 12,4 C 27,6 C 6,1 km/h (2 Bft)
17/09/2012 13:30 27,6 C 39 % 1015,1 hPa 0,0 mm 4,7 km/h (1 Bft) S-SO 202 0 min 0 W/m 12,4 C 27,6 C 4,7 km/h (1 Bft)
17/09/2012 13:40 27,7 C 38 % 1015,1 hPa 0,0 mm 2,2 km/h (1 Bft) S 180 0 min 0 W/m 12,1 C 27,7 C 4,3 km/h (1 Bft)
17/09/2012 13:50 27,8 C 38 % 1015,1 hPa 0,0 mm 0,7 km/h (0 Bft) S-SO 202 0 min 0 W/m 12,2 C 27,8 C 0,7 km/h (0 Bft)
17/09/2012 14:00 28,0 C 37 % 1015,1 hPa 0,0 mm 0,7 km/h (0 Bft) N 360 0 min 0 W/m 11,9 C 28,0 C 0,7 km/h (0 Bft)
17/09/2012 14:10 28,0 C 36 % 1015,0 hPa 0,0 mm 2,5 km/h (1 Bft) SO 225 0 min 0 W/m 11,5 C 28,0 C 2,5 km/h (1 Bft)
17/09/2012 14:20 28,0 C 36 % 1014,8 hPa 0,0 mm 9,0 km/h (2 Bft) O 270 0 min 0 W/m 11,5 C 28,0 C 11,9 km/h (2 Bft)
17/09/2012 14:30 28,1 C 35 % 1014,9 hPa 0,0 mm 2,9 km/h (1 Bft) O 270 0 min 0 W/m 11,2 C 28,1 C 10,4 km/h (2 Bft)
17/09/2012 14:40 28,1 C 35 % 1014,8 hPa 0,0 mm 9,4 km/h (2 Bft) O 270 0 min 0 W/m 11,2 C 28,1 C 14,8 km/h (3 Bft)
17/09/2012 14:50 28,1 C 34 % 1014,5 hPa 0,0 mm 5,4 km/h (2 Bft) SO 225 0 min 0 W/m 10,7 C 28,1 C 9,0 km/h (2 Bft)
17/09/2012 15:00 28,0 C 35 % 1014,4 hPa 0,0 mm 3,6 km/h (1 Bft) O 270 0 min 0 W/m 11,1 C 28,0 C 3,6 km/h (1 Bft)
17/09/2012 15:10 28,1 C 34 % 1014,5 hPa 0,0 mm 2,2 km/h (1 Bft) O-SO 247 0 min 0 W/m 10,7 C 28,1 C 5,8 km/h (2 Bft)
17/09/2012 15:20 28,1 C 33 % 1014,2 hPa 0,0 mm 3,6 km/h (1 Bft) O-SO 247 0 min 0 W/m 10,3 C 28,1 C 7,2 km/h (2 Bft)
17/09/2012 15:30 28,1 C 33 % 1014,1 hPa 0,0 mm 6,5 km/h (2 Bft) S 180 0 min 0 W/m 10,3 C 28,1 C 8,3 km/h (2 Bft)
17/09/2012 15:40 27,9 C 35 % 1014,0 hPa 0,0 mm 7,2 km/h (2 Bft) S-SE 157 0 min 0 W/m 11,0 C 27,9 C 10,1 km/h (2 Bft)
17/09/2012 15:50 27,6 C 35 % 1013,9 hPa 0,0 mm 1,8 km/h (1 Bft) S-SO 202 0 min 0 W/m 10,7 C 27,6 C 7,9 km/h (2 Bft)
17/09/2012 16:00 27,8 C 34 % 1013,9 hPa 0,0 mm 4,3 km/h (1 Bft) O 270 0 min 0 W/m 10,5 C 27,8 C 8,6 km/h (2 Bft)
17/09/2012 16:10 27,9 C 34 % 1013,8 hPa 0,0 mm 4,0 km/h (1 Bft) O 270 0 min 0 W/m 10,6 C 27,9 C 7,6 km/h (2 Bft)
17/09/2012 16:20 27,9 C 34 % 1013,8 hPa 0,0 mm 2,5 km/h (1 Bft) SO 225 0 min 0 W/m 10,6 C 27,9 C 6,5 km/h (2 Bft)
17/09/2012 16:30 28,0 C 34 % 1013,8 hPa 0,0 mm 4,7 km/h (1 Bft) S-SO 202 0 min 0 W/m 10,7 C 28,0 C 8,6 km/h (2 Bft)
17/09/2012 16:40 28,1 C 34 % 1013,7 hPa 0,0 mm 0,0 km/h (0 Bft) S-SO 202 0 min 0 W/m 10,7 C 28,1 C 0,0 km/h (0 Bft)
17/09/2012 16:50 28,1 C 34 % 1013,5 hPa 0,0 mm 3,2 km/h (1 Bft) SO 225 0 min 0 W/m 10,7 C 28,1 C 7,6 km/h (2 Bft)
17/09/2012 17:00 28,2 C 34 % 1013,6 hPa 0,0 mm 3,6 km/h (1 Bft) O 270 0 min 0 W/m 10,8 C 28,2 C 13,3 km/h (3 Bft)
17/09/2012 17:10 28,2 C 34 % 1013,5 hPa 0,0 mm 1,8 km/h (1 Bft) SO 225 0 min 0 W/m 10,8 C 28,2 C 3,2 km/h (1 Bft)
17/09/2012 17:20 28,2 C 34 % 1013,5 hPa 0,0 mm 1,1 km/h (1 Bft) O-NO 292 0 min 0 W/m 10,8 C 28,2 C 4,3 km/h (1 Bft)
17/09/2012 17:30 28,3 C 35 % 1013,4 hPa 0,0 mm 1,1 km/h (1 Bft) S-SO 202 0 min 0 W/m 11,4 C 28,3 C 1,1 km/h (1 Bft)
17/09/2012 17:40 28,3 C 34 % 1013,5 hPa 0,0 mm 1,8 km/h (1 Bft) O-SO 247 0 min 0 W/m 10,9 C 28,3 C 3,6 km/h (1 Bft)
17/09/2012 17:50 28,2 C 35 % 1013,3 hPa 0,0 mm 3,2 km/h (1 Bft) O 270 0 min 0 W/m 11,3 C 28,2 C 6,5 km/h (2 Bft)
17/09/2012 18:00 28,0 C 35 % 1013,4 hPa 0,0 mm 4,0 km/h (1 Bft) SO 225 0 min 0 W/m 11,1 C 28,0 C 8,6 km/h (2 Bft)
17/09/2012 18:10 27,8 C 35 % 1013,4 hPa 0,0 mm 1,4 km/h (1 Bft) O-SO 247 0 min 0 W/m 10,9 C 27,8 C 6,1 km/h (2 Bft)
17/09/2012 18:20 27,7 C 36 % 1013,2 hPa 0,0 mm 1,4 km/h (1 Bft) S-SO 202 0 min 0 W/m 11,3 C 27,7 C 5,8 km/h (2 Bft)
17/09/2012 18:30 27,5 C 36 % 1013,3 hPa 0,0 mm 0,0 km/h (0 Bft) O-SO 247 0 min 0 W/m 11,1 C 27,5 C 2,9 km/h (1 Bft)
17/09/2012 18:40 27,4 C 37 % 1013,2 hPa 0,0 mm 0,4 km/h (0 Bft) O-SO 247 0 min 0 W/m 11,4 C 27,4 C 0,4 km/h (0 Bft)
17/09/2012 18:50 27,2 C 37 % 1013,3 hPa 0,0 mm 0,0 km/h (0 Bft) SO 225 0 min 0 W/m 11,2 C 27,2 C 0,0 km/h (0 Bft)
17/09/2012 19:00 26,7 C 38 % 1013,4 hPa 0,0 mm 0,0 km/h (0 Bft) S-SO 202 0 min 0 W/m 11,2 C 26,7 C 0,0 km/h (0 Bft)
17/09/2012 19:10 26,5 C 39 % 1013,3 hPa 0,0 mm 0,4 km/h (0 Bft) S-SO 202 0 min 0 W/m 11,4 C 26,5 C 3,6 km/h (1 Bft)
17/09/2012 19:20 26,3 C 39 % 1013,3 hPa 0,0 mm 0,0 km/h (0 Bft) O-SO 247 0 min 0 W/m 11,2 C 26,3 C 0,0 km/h (0 Bft)
17/09/2012 19:30 26,0 C 40 % 1013,3 hPa 0,0 mm 0,0 km/h (0 Bft) O-SO 247 0 min 0 W/m 11,3 C 26,0 C 0,0 km/h (0 Bft)
17/09/2012 19:40 25,4 C 41 % 1013,3 hPa 0,0 mm 0,0 km/h (0 Bft) O-SO 247 0 min 0 W/m 11,2 C 25,4 C 0,0 km/h (0 Bft)
17/09/2012 19:50 24,7 C 42 % 1013,4 hPa 0,0 mm 0,0 km/h (0 Bft) S-SO 202 0 min 0 W/m 10,9 C 24,7 C 0,0 km/h (0 Bft)
17/09/2012 20:00 23,8 C 44 % 1013,3 hPa 0,0 mm 0,0 km/h (0 Bft) S-SO 202 0 min 0 W/m 10,8 C 23,8 C 0,0 km/h (0 Bft)
17/09/2012 20:10 23,0 C 46 % 1013,4 hPa 0,0 mm 0,0 km/h (0 Bft) S-SO 202 0 min 0 W/m 10,7 C 23,0 C 0,0 km/h (0 Bft)
17/09/2012 20:20 22,3 C 47 % 1013,5 hPa 0,0 mm 0,0 km/h (0 Bft) S-SO 202 0 min 0 W/m 10,4 C 22,3 C 0,0 km/h (0 Bft)
17/09/2012 20:30 21,7 C 49 % 1013,6 hPa 0,0 mm 0,0 km/h (0 Bft) S-SO 202 0 min 0 W/m 10,5 C 21,7 C 0,0 km/h (0 Bft)
17/09/2012 20:40 21,1 C 50 % 1013,8 hPa 0,0 mm 0,0 km/h (0 Bft) S-SO 202 0 min 0 W/m 10,3 C 21,1 C 0,0 km/h (0 Bft)
17/09/2012 20:50 20,6 C 51 % 1013,8 hPa 0,0 mm 0,0 km/h (0 Bft) S-SO 202 0 min 0 W/m 10,1 C 20,6 C 0,0 km/h (0 Bft)
17/09/2012 21:00 20,3 C 53 % 1013,8 hPa 0,0 mm 0,0 km/h (0 Bft) S-SO 202 0 min 0 W/m 10,4 C 20,3 C 0,0 km/h (0 Bft)
17/09/2012 21:10 19,9 C 54 % 1013,9 hPa 0,0 mm 0,0 km/h (0 Bft) SO 225 0 min 0 W/m 10,3 C 19,9 C 0,0 km/h (0 Bft)
17/09/2012 21:20 19,5 C 55 % 1014,0 hPa 0,0 mm 0,0 km/h (0 Bft) SO 225 0 min 0 W/m 10,2 C 19,5 C 0,0 km/h (0 Bft)
17/09/2012 21:30 19,1 C 55 % 1014,0 hPa 0,0 mm 0,0 km/h (0 Bft) N 360 0 min 0 W/m 9,8 C 19,1 C 0,0 km/h (0 Bft)
17/09/2012 21:40 18,7 C 56 % 1014,0 hPa 0,0 mm 0,0 km/h (0 Bft) SO 225 0 min 0 W/m 9,7 C 18,7 C 0,0 km/h (0 Bft)
17/09/2012 21:50 18,4 C 58 % 1014,0 hPa 0,0 mm 0,0 km/h (0 Bft) SO 225 0 min 0 W/m 10,0 C 18,4 C 0,0 km/h (0 Bft)
17/09/2012 22:00 18,1 C 58 % 1014,0 hPa 0,0 mm 0,0 km/h (0 Bft) SO 225 0 min 0 W/m 9,7 C 18,1 C 0,0 km/h (0 Bft)
17/09/2012 22:10 17,8 C 59 % 1014,1 hPa 0,0 mm 0,0 km/h (0 Bft) SO 225 0 min 0 W/m 9,7 C 17,8 C 0,0 km/h (0 Bft)
17/09/2012 22:20 17,4 C 60 % 1014,3 hPa 0,0 mm 0,0 km/h (0 Bft) SO 225 0 min 0 W/m 9,6 C 17,4 C 0,0 km/h (0 Bft)
17/09/2012 22:30 17,2 C 63 % 1014,2 hPa 0,0 mm 0,0 km/h (0 Bft) SO 225 0 min 0 W/m 10,1 C 17,2 C 0,0 km/h (0 Bft)
17/09/2012 22:40 17,1 C 63 % 1014,2 hPa 0,0 mm 0,0 km/h (0 Bft) SO 225 0 min 0 W/m 10,0 C 17,1 C 0,0 km/h (0 Bft)
17/09/2012 22:50 16,9 C 63 % 1014,4 hPa 0,0 mm 0,0 km/h (0 Bft) SO 225 0 min 0 W/m 9,8 C 16,9 C 0,0 km/h (0 Bft)
17/09/2012 23:00 16,7 C 64 % 1014,3 hPa 0,0 mm 0,0 km/h (0 Bft) SO 225 0 min 0 W/m 9,9 C 16,7 C 0,0 km/h (0 Bft)
17/09/2012 23:10 16,4 C 65 % 1014,3 hPa 0,0 mm 0,0 km/h (0 Bft) SO 225 0 min 0 W/m 9,8 C 16,4 C 0,0 km/h (0 Bft)
17/09/2012 23:20 16,4 C 65 % 1014,2 hPa 0,0 mm 0,0 km/h (0 Bft) SO 225 0 min 0 W/m 9,8 C 16,4 C 0,0 km/h (0 Bft)
17/09/2012 23:30 16,3 C 67 % 1014,3 hPa 0,0 mm 0,0 km/h (0 Bft) SO 225 0 min 0 W/m 10,2 C 16,3 C 0,0 km/h (0 Bft)
17/09/2012 23:40 16,3 C 68 % 1014,3 hPa 0,0 mm 0,0 km/h (0 Bft) SO 225 0 min 0 W/m 10,4 C 16,3 C 0,0 km/h (0 Bft)
17/09/2012 23:50 16,2 C 68 % 1014,3 hPa 0,0 mm 0,0 km/h (0 Bft) SO 225 0 min 0 W/m 10,3 C 16,2 C 0,0 km/h (0 Bft)
_ Min-Heure 05:20 15:30 18:40 - 23:50 - - - - 05:20 06:50 23:50
Minimum _ 9,6 C 33 % 1013,2 hPa - 0,0 km/h (0 Bft) - - - - 7,0 C 9,4 C 0,0 km/h (0 Bft)
_ Max-Heure 17:40 07:10 12:00 23:50 14:40 - - 23:50 23:50 11:30 17:40 14:40
Maximum _ 28,3 C 86 % 1015,4 hPa 0,0 mm 9,4 km/h
O (2 Bft)
- - 0 min 0 W/m 15,4 C 28,3 C 14,8 km/h
O (3 Bft)
Moyenne _ 18,5 C 62 % 1014,1 hPa #0,0 mm 1,3 km/h (1 Bft) SO - #0 min. 0 W/m 10,0 C 18,5 C 2,7 km/h (1 Bft)
Saint Bonnet de Bellac- Haute Vienne - France